User: anonymous   Login
Location: Unspecified
(0.0000°N, 0.0000°E)
Time: 11:02:52
(UTC+00:00)
Language:

Hamsat - Orbit

View from above orbital plane
View from above orbital plane
View from above satellite
View from above satellite

Ground track
Ground track

The orbit data is extracted from the following two-line orbital elements,

1 28650U 05017B   17269.17758777  .00000370  00000-0  45090-4 0  9990
2 28650  97.6626 240.1558 0024128 152.9332 207.3149 14.88748144671195
Epoch (UTC): 26 September 2017 04:15:43
Eccentricity: 0.0024128
inclination: 97.6626°
perigee height: 585 km
apogee height: 618 km
right ascension of ascending node: 240.1558°
argument of perigee: 152.9332°
revolutions per day: 14.88748144
mean anomaly at epoch: 207.3149°
orbit number at epoch: 67119

The dashed part of the orbit path shows where the satellite is in the earth's shadow,  

DLR